EVA215 RCTP-WSSS

Flight info

Callsign EVA215
Flight time N/A
Altitude 36000
Route CHALI1A CHALI T5 PARPA A577 KABAM N892 MIGUG/K0887F360 N892 MELAS/N0476F360 N892 MABAL MABAL2B
Aircraft B77W/H-SDE1E2E3FGHIJ1J3J4J5LM1P2RWXYZ/LB1D1

Departure

Time 2026-05-06 00:32
Airport Taiwan Taoyuan International Airport (RCTP)

Arrival

Time N/A
Airport Singapore Changi Airport (WSSS)
Time Latitude Longitude Altitude Speed Heading
2026-05-06 00:12 25.07867 121.23787 121 ft 0 kts 320°
2026-05-06 00:19 25.07860 121.23794 121 ft 2 kts 320°
2026-05-06 00:19 25.07848 121.23804 121 ft 2 kts 320°
2026-05-06 00:19 25.07837 121.23815 121 ft 2 kts 320°
2026-05-06 00:19 25.07829 121.23822 121 ft 1 kts 320°
2026-05-06 00:20 25.07818 121.23833 121 ft 2 kts 307°
2026-05-06 00:20 25.07811 121.23847 121 ft 2 kts 291°
2026-05-06 00:20 25.07807 121.23862 121 ft 2 kts 277°
2026-05-06 00:20 25.07806 121.23879 121 ft 2 kts 263°
2026-05-06 00:21 25.07809 121.23895 121 ft 2 kts 250°
2026-05-06 00:21 25.07816 121.23910 121 ft 2 kts 236°
2026-05-06 00:21 25.07821 121.23917 121 ft 1 kts 228°
2026-05-06 00:21 25.07822 121.23919 121 ft 0 kts 228°
2026-05-06 00:24 25.07818 121.23914 121 ft 3 kts 228°
2026-05-06 00:25 25.07787 121.23875 121 ft 10 kts 229°
2026-05-06 00:25 25.07734 121.23807 121 ft 11 kts 230°
2026-05-06 00:25 25.07678 121.23734 121 ft 13 kts 230°
2026-05-06 00:25 25.07601 121.23697 121 ft 12 kts 165°
2026-05-06 00:26 25.07529 121.23757 121 ft 12 kts 139°
2026-05-06 00:26 25.07454 121.23760 121 ft 11 kts 215°
2026-05-06 00:26 25.07397 121.23701 121 ft 11 kts 229°
2026-05-06 00:26 25.07343 121.23631 121 ft 11 kts 229°
2026-05-06 00:27 25.07285 121.23557 121 ft 13 kts 229°
2026-05-06 00:27 25.07224 121.23477 121 ft 14 kts 230°
2026-05-06 00:27 25.07149 121.23377 121 ft 20 kts 230°
2026-05-06 00:27 25.07057 121.23264 121 ft 19 kts 226°
2026-05-06 00:28 25.06972 121.23161 121 ft 17 kts 229°
2026-05-06 00:28 25.06890 121.23057 121 ft 19 kts 229°
2026-05-06 00:28 25.06803 121.22948 121 ft 18 kts 229°
2026-05-06 00:28 25.06723 121.22847 121 ft 16 kts 229°
2026-05-06 00:29 25.06649 121.22754 121 ft 16 kts 229°
2026-05-06 00:29 25.06566 121.22649 121 ft 19 kts 229°
2026-05-06 00:29 25.06471 121.22525 121 ft 22 kts 229°
2026-05-06 00:29 25.06374 121.22402 121 ft 20 kts 229°
2026-05-06 00:30 25.06286 121.22292 121 ft 18 kts 228°
2026-05-06 00:30 25.06181 121.22260 121 ft 16 kts 148°
2026-05-06 00:30 25.06108 121.22344 121 ft 14 kts 110°
2026-05-06 00:30 25.06148 121.22432 121 ft 13 kts 48°
2026-05-06 00:31 25.06172 121.22462 121 ft 0 kts 49°
2026-05-06 00:31 25.06243 121.22552 121 ft 55 kts 49°
2026-05-06 00:31 25.06720 121.23160 122 ft 150 kts 49°
2026-05-06 00:32 25.07575 121.24258 343 ft 215 kts 50°
2026-05-06 00:32 25.08523 121.25520 1671 ft 217 kts 50°
2026-05-06 00:32 25.09389 121.26696 2908 ft 204 kts 51°
2026-05-06 00:32 25.10324 121.27909 3611 ft 213 kts 48°
2026-05-06 00:33 25.11375 121.29185 4020 ft 239 kts 47°
2026-05-06 00:33 25.12615 121.30523 4112 ft 263 kts 38°
2026-05-06 00:33 25.14232 121.31481 4202 ft 268 kts 14°
2026-05-06 00:33 25.16028 121.31684 5201 ft 260 kts 351°
2026-05-06 00:34 25.17739 121.31096 5825 ft 273 kts 328°
2026-05-06 00:34 25.19203 121.29737 6511 ft 282 kts 308°
2026-05-06 00:34 25.20370 121.28037 7641 ft 277 kts 301°
2026-05-06 00:34 25.21372 121.26329 8921 ft 268 kts 300°
2026-05-06 00:35 25.22369 121.24606 9878 ft 270 kts 300°
2026-05-06 00:35 25.23400 121.22823 10627 ft 281 kts 300°
2026-05-06 00:35 25.24469 121.20977 11236 ft 297 kts 300°
2026-05-06 00:35 25.25602 121.18988 11832 ft 313 kts 296°
2026-05-06 00:36 25.26477 121.16741 12373 ft 328 kts 284°
2026-05-06 00:36 25.26869 121.14223 12891 ft 345 kts 272°
2026-05-06 00:36 25.26676 121.11536 13441 ft 362 kts 258°
2026-05-06 00:36 25.25799 121.08884 14221 ft 372 kts 243°
2026-05-06 00:37 25.24322 121.06575 15221 ft 376 kts 233°
2026-05-06 00:37 25.22589 121.04382 16094 ft 382 kts 232°
2026-05-06 00:37 25.20829 121.02180 16814 ft 391 kts 232°
2026-05-06 00:37 25.18941 120.99953 17495 ft 402 kts 228°
2026-05-06 00:38 25.16906 120.97823 18343 ft 406 kts 228°
2026-05-06 00:38 25.14866 120.95690 19210 ft 409 kts 228°
2026-05-06 00:38 25.12795 120.93509 19992 ft 414 kts 229°
2026-05-06 00:38 25.10726 120.91302 20706 ft 420 kts 229°
2026-05-06 00:39 25.08612 120.89036 21469 ft 425 kts 230°
2026-05-06 00:39 25.06499 120.86768 22229 ft 428 kts 230°
2026-05-06 00:39 25.04379 120.84489 22964 ft 432 kts 230°
2026-05-06 00:39 25.02221 120.82169 23605 ft 438 kts 230°
2026-05-06 00:40 25.00026 120.79808 24189 ft 445 kts 230°
2026-05-06 00:40 24.97774 120.77387 24829 ft 451 kts 230°
2026-05-06 00:40 24.95542 120.74989 25527 ft 454 kts 230°
2026-05-06 00:40 24.93274 120.72553 26250 ft 457 kts 231°
2026-05-06 00:41 24.90999 120.70110 26877 ft 462 kts 231°
2026-05-06 00:41 24.88701 120.67643 27407 ft 469 kts 231°
2026-05-06 00:41 24.86348 120.65117 27856 ft 478 kts 231°
2026-05-06 00:41 24.83931 120.62524 28375 ft 484 kts 231°
2026-05-06 00:42 24.81533 120.59955 28917 ft 489 kts 231°
2026-05-06 00:42 24.79088 120.57338 29590 ft 491 kts 231°
2026-05-06 00:42 24.76633 120.54713 30397 ft 490 kts 231°
2026-05-06 00:42 24.74196 120.52116 31206 ft 488 kts 230°